Flag for Austria Weather past 2 weeks in Mattersburg, Burgenland, Austria

Now
65 °F

Mild.


Feels Like: 65 °F
Forecast: 58 / 71 °F
Wind: 2 mph from North

Location: Eisenstadt

Current Time: Sep 3, 2015 at 10:07:31 PM

Latest Report: Sep 3, 2015 at 9:00 PM


Visibility: N/A

Pressure: 29.84 "Hg

Humidity: 85%

Dew point: 60 °F

Location of MattersburgLocation

Historic Weather in Mattersburg — Graph

°F

Mattersburg temperature yesterday

Maximum temperature yesterday: 80 °F (at 12:00 AM)
Minimum temperature yesterday: 62 °F (at 11:00 PM)
Average temperature yesterday: 69 °F

Past Weeks' High & Low Weather Summary

 TemperatureHumidityPressure
High94 °F (Aug 30, 4:00 PM)95% (Aug 20, 9:00 AM)30.22 "Hg (Aug 20, 9:00 AM)
Low53 °F (Aug 26, 7:00 AM)19% (Aug 31, 3:00 PM)29.68 "Hg (Sep 1, 7:00 PM)
Average71 °F65%30.00 "Hg
* Reported Aug 19 8:00 PM — Sep 3 8:00 PM, Mattersburg, Weather by CustomWeather, © 2015

Note: Actual official high and low records may vary slightly from our data, if they occured in-between our weather recording intervals... More about our weather records

Advertising

Mattersburg weather history for previous 24 hours

 ConditionsComfort  
Time TempWeatherWind HumidityBarometerVisibility
8:00 PM
Thu, Sep 3
71 °FOvercast.2 mph67%29.82 "Hg12 mi
7:00 PM73 °FOvercast.2 mph63%29.83 "Hg16 mi
6:00 PM73 °FMild.3 mph65%29.83 "HgN/A
5:00 PM73 °FPartly sunny.5 mph61%29.85 "Hg16 mi
4:00 PM72 °FMild.3 mph57%29.87 "HgN/A
3:00 PM71 °FMild.3 mph57%29.89 "HgN/A
2:00 PM71 °FPartly sunny.2 mph55%29.91 "Hg16 mi
1:00 PM69 °FMild.1 mph57%29.92 "HgN/A
12:00 PM67 °FMild.1 mph69%29.94 "HgN/A
11:00 AM64 °FOvercast.1 mph79%29.95 "Hg12 mi
10:00 AM63 °FSprinkles. Cloudy.1 mph76%29.96 "HgN/A
9:00 AM60 °FSprinkles. Cloudy.1 mph83%29.97 "HgN/A
8:00 AM61 °FOvercast.1 mph78%29.97 "Hg12 mi
7:00 AM59 °FOvercast.5 mph83%29.96 "Hg16 mi
5:00 AM59 °FOvercast.5 mph83%29.97 "Hg6 mi
4:00 AM59 °FCool.5 mph85%29.97 "HgN/A
3:00 AM60 °FCool.6 mph87%29.98 "HgN/A
2:00 AM60 °FOvercast.6 mph88%29.97 "Hg6 mi
1:00 AM61 °FCool.6 mph87%29.98 "HgN/A
12:00 AM61 °FCool.2 mph90%29.98 "HgN/A
11:00 PM
Wed, Sep 2
62 °FDrizzle. Overcast.1 mph92%29.97 "Hg6 mi
10:00 PM62 °FCool.1 mph90%29.97 "HgN/A
Weather by CustomWeather, © 2015

See weather overviewHow to use our weather pages